sat.trackr.live / text

‹ back to catalog

FLORIPASAT-1

NORAD 44885 · 2019-093G

PAYLOAD ACTIVE UNKNOWN

§ Identity

Operator
Country
BRAZ
Launch date
2019-12-20
Launch site
TAISC
Launch vehicle
Mass (kg)
RCS (m²)

External: N2YO · Heavens-Above · Gunter

§ Orbital elements

Epoch: 2026-09-20T05:05:36.411072Z

Period
95.70 min
Inclination
97.7920°
Eccentricity
0.0012488
Mean motion
15.04706762 rev/d
Perigee alt
543.8 km
Apogee alt
561.1 km
Semi-major
6,930.5 km
B*
2.5074e-4
RAAN
358.1917°
Arg perigee
107.6861°
Mean anomaly
252.5729°
Rev number
36,693

§ Raw data

FLORIPASAT-11 44885U 19093G   26263.21222698  .00003472  00000+0  25074-3 0  99982 44885  97.7920 358.1917 0012488 107.6861 252.5729 15.04706762366938

JSON: /api/v1/satellites/44885 · /tle

For live sub-satellite position, see the globe view (requires WebGL).

§ Visibility from observer

Set your observer location to see the next 7 days of passes ≥ 10°. The values pass through the URL so the page stays shareable.

No JS? Fill the form by hand. The geolocation button needs JavaScript.

§ Radio — SatNOGS DB

ModeDescriptionDownlinkUplink
GFSK Mode U/U GFSK2k4 Repeater 436.100 MHz 436.100 MHz
GFSK Mode V GFSK1k2 AX.25 Beacon 145.900 MHz

2 transmitters · refreshed weekly from db.satnogs.org